This demonstration page uses our WeatherBlox Daily Observations layout. Learn more.

Left ArrowRight Arrow

39.92423, -83.80882

Hourly Observations for June 6, 2018

Temp ( °F °C ) Dew Point ( °F °C ) Humidity (%) Winds ( mph kmh ) Pressure ( in mb ) Visibility ( mi km ) Precip ( " mm )
12:23 am 00:23 Mostly Clear with Mist and Fog 61 16 61 16 100 100 NNE 10 17 29.83 1010 2 2 N/A
12:32 am 00:32 Partly Cloudy with Mist and Fog 59 15 57 14 94 94 NE 10 17 29.85 1011 4 6 N/A
12:56 am 00:56 Mostly Cloudy 58 14.4 55 12.8 90 90 NE 8 13 29.86 1011 10 16 N/A
1:05 am 01:05 Partly Cloudy 57 14 54 12 88 88 NE 9 15 29.88 1012 10 16 N/A
1:56 am 01:56 Clear 54 12.2 53 11.7 97 97 NE 8 13 29.86 1011 10 16 N/A
2:56 am 02:56 Mostly Cloudy 53 11.7 52 11.1 96 96 ENE 6 9 29.88 1012 10 16 N/A
3:56 am 03:56 Mostly Cloudy 52 11.1 51 10.6 97 97 NE 7 11 29.89 1012 10 16 N/A
4:56 am 04:56 Clear 52 11.1 50 10 93 93 NE 12 19 29.92 1013 10 16 N/A
5:56 am 05:56 Clear 49 9.4 48 8.9 97 97 ENE 7 11 29.93 1014 10 16 N/A
6:56 am 06:56 Sunny 51 10.6 49 9.4 92 92 NE 6 9 29.95 1014 10 16 N/A
7:56 am 07:56 Sunny 54 12.2 50 10 87 87 ENE 6 9 29.97 1015 10 16 N/A
8:56 am 08:56 Sunny 57 13.9 48 8.9 72 72 ENE 10 17 30.00 1016 10 16 N/A
9:56 am 09:56 Sunny 59 15 48 8.9 67 67 NE 9 15 30.00 1016 10 16 N/A
10:56 am 10:56 Sunny 61 16.1 50 10 67 67 NNE 9 15 30.01 1016 10 16 N/A
11:56 am 11:56 Sunny 61 16.1 49 9.4 65 65 E 5 7 29.99 1016 10 16 N/A
12:56 pm 12:56 Sunny 64 17.8 49 9.4 58 58 NNW 8 13 30.02 1017 10 16 N/A
1:56 pm 13:56 Sunny 66 18.9 49 9.4 54 54 NNE 8 13 30.00 1016 10 16 N/A
2:56 pm 14:56 Sunny 66 18.9 51 10.6 59 59 VRB 3 6 29.98 1015 10 16 N/A
3:56 pm 15:56 Hazy 68 20 51 10.6 55 55 ENE 6 9 29.98 1015 6 10 N/A
4:56 pm 16:56 Sunny 70 21.1 50 10 49 49 VRB 3 6 29.99 1016 10 16 N/A
5:56 pm 17:56 Sunny 69 20.6 50 10 51 51 VRB 5 7 29.98 1015 10 16 N/A
6:56 pm 18:56 Sunny 69 20.6 52 11.1 55 55 E 6 9 29.96 1015 10 16 N/A
7:56 pm 19:56 Sunny 66 18.9 51 10.6 59 59 E 6 9 29.97 1015 10 16 N/A
8:56 pm 20:56 Sunny 62 16.7 53 11.7 73 73 ESE 6 9 29.98 1015 10 16 N/A
9:56 pm 21:56 Clear 58 14.4 52 11.1 81 81 E 6 9 29.98 1015 10 16 N/A
10:56 pm 22:56 Clear 57 13.9 52 11.1 83 83 SE 8 13 29.99 1016 10 16 N/A
11:56 pm 23:56 Clear 58 14.4 51 10.6 78 78 SSE 6 9 30.00 1016 10 16 N/A

Powered by AerisWeather